COSMOS 252 DEB *, 3690

Orbit data source: Space-Track

COSMOS 252 DEB *, 3690 is space debris in LEO originally from a launch on Fri, 01 Nov 1968 UTC launched from the Tyuratam Missile And Space Complex (TTMTR). Debris objects in space refer to the collection of defunct objects orbiting the Earth. Examples of debris include non-operational satellites, rocket bodies, and fragments generated from explosions, collisions, or faulty payload assembly.

Loading next visibility...
Identifier
3690, 1968-097AH
Orbit
LEO
Country
Flag of CISCIS
Related business
Manufacturer
Unknown
Mission
Spacecraft
Bus & Motor
Unknown
Mass
Unknown
Launch date (UTC)
1968-11-01 (57 years ago)
Launch vehicle
Unknown
Launch site
Tyuratam Missile And Space Complex (TTMTR)
Object type
Payload
Rocket body
Debris
Shape & HBR
Unknown shape, 0.1 m
Radar Cross Section
Small (<0.1 m²)

Expand to show TLE details & history
Last TLE update: 20 hours ago

TLE from 20 hours ago
0 COSMOS 252 DEB *
1 03690U 68097AH  25309.12730862  .00000108  00000-0  18849-3 0  9998
2 03690  62.3456 214.8783 0772966 210.9934 144.3201 12.90398695643251
Epoch: 2025-11-05T03:03Z
TLE epoch observation values (Epoch: 2025-11-05T03:03:19.464Z)
Latitude
-0°
Longitude
124.44276°
Altitude
1,797.911 km
Speed
6.755 km/s
True Right ascension
14h 19m 30s
True Declination
0° 00' 00"
Sunlit
Object was in daylight at epoch
Visualization orbit readout
Latitude
Unknown
Longitude
Unknown
Altitude
Unknown
Speed
Unknown
Apparent Right ascension
Unknown
Apparent Declination
Unknown
Sunlit
N/A
Visualization observer readout
Local Sidereal Time
18:38:48
Azimuth
Unknown
Elevation
Unknown
Doppler factor
Unknown
Orbital elements
Apogee altitude
1,892.334 km
Perigee altitude
705.512 km
Semi-major axis
7,677.06 km
Eccentricity
0.0773
Inclination
62.3456°
RAAN
214.8783°
Arg. of periapsis
210.9934°
True anomaly
149.10388°
Mean anomaly
144.3201°
Eccentric anomaly
146.74846°
Mean motion
3.22664 °/min
Orbital period
111.57 mins
BSTAR
0.00018849
Loading maneuver chart data...
Computing Atmospheric mass density...

Documentation

Showing up to 5 results
|